SCP
0 0 0 0 0 0 0 0 0 0 0 0 0 0 0 0 0 0 0 0 0 0 0 0 0 0 0 0 0 0 0 0 0 0 0 0 0 0 0 0 0 0 0 0
0 0 0 0 0 0 0 0 0 0 0 0 0 0 0 0 0 0 0 0 0 0 0 0 0 0 0 0 0 0 0 0 0 0 0 0 0 0 0 0 0 0 0 0
0 0 0 0 0 0 0 0 0 0 0 0 0 0 0 0 0 0 0 0 0 0 0 0 0 0 0 0 0 0 0 0 0 0 0 0 0 0 0 0 0 0 0 0
0 0 0 0 0 0 0 0 0 0 0 0 0 0 0 0 0 0 0 0 0 0 0 0 0 0 0 0 0 0 0 0 0 0 0 0 0 0 0 0 0 0 0 0
0 0 0 0 0 0 0 0 0 0 0 0 0 0 0 0 0 0 0 0 0 0 0 0 0 0 0 0 0 0 0 0 0 0 0 0 0 0 0 0 0 0 0 0
0 0 0 0 0 0 0 0 0 0 0 0 0 0 0 0 0 0 0 0 0 0 0 0 0 0 0 0 0 0 0 0 0 0 0 0 0 0 0 0 0 0 0 0
0 0 0 0 0 0 0 0 0 0 0 0 0 0 0 0 0 0 0 0 0 0 0 0 0 0 0 0 0 0 0 0 0 0 0 0 0 0 0 0 0 0 0 0
0 0 0 0 0 0 0 0 0 0 0 0 0 0 0 0 0 0 0 0 0 0 0 0 0 0 0 0 0 0 0 0 0 0 0 0 0 0 0 0 0 0 0 0
0 0 0 0 0 0 0 0 0 0 0 0 0 0 0 0 0 0 0 0 0 0 0 0 0 0 0 0 0 0 0 0 0 0 0 0 0 0 0 0 0 0 0 0
0 0 0 0 0 0 0 0 0 0 0 0 0 0 0 0 0 0 0 0 0 0 0 0 0 0 0 0 0 0 0 0 0 0 0 0 0 0 0 0 0 0 0 0
0 0 0 0 0 0 0 0 0 0 0 0 0 0 0 0 0 0 0 0 0 0 0 0 0 0 0 0 0 0 0 0 0 0 0 0 0 0 0 0 0 0 0 0
0 0 0 0 0 0 0 0 0 0 0 0 0 0 0 0 0 0 0 0 0 0 0 0 0 0 0 0 0 0 0 0 0 0 0 0 0 0 0 0 0 0 0 0
0 0 0 0 0 0 0 0 0 0 0 0 0 0 0 0 0 0 0 0 0 0 0 0 0 0 0 0 0 0 0 0 0 0 0 0 0 0 0 0 0 0 0 0
0 0 0 0 0 0 0 0 0 0 0 0 0 0 0 0 0 0 0 0 0 0 0 0 0 0 0 0 0 0 0 0 0 0 0 0 0 0 0 0 0 0 0 0
0 0 0 0 0 0 0 0 0 0 0 0 0 0 0 0 0 0 0 0 0 0 0 0 0 0 0 0 0 0 0 0 0 0 0 0 0 0 0 0 0 0 0 0
0 0 0 0 0 0 0 0 0 0 0 0 0 0 0 0 0 0 0 0 0 0 0 0 0 0 0 0 0 0 0 0 0 0 0 0 0 0 0 0 0 0 0 0
0 0 0 0 0 0 0 0 0 0 0 0 0 0 0 0 0 0 0 0 0 0 0 0 0 0 0 0 0 0 0 0 0 0 0 0 0 0 0 0 0 0 0 0
0 0 0 0 0 0 0 0 0 0 0 0 0 0 0 0 0 0 0 0 0 0 0 0 0 0 0 0 0 0 0 0 0 0 0 0 0 0 0 0 0 0 0 0
0 0 0 0 0 0 0 0 0 0 0 0 0 0 0 0 0 0 0 0 0 0 0 0 0 0 0 0 0 0 0 0 0 0 0 0 0 0 0 0 0 0 0 0
0 0 0 0 0 0 0 0 0 0 0 0 0 0 0 0 0 0 0 0 0 0 0 0 0 0 0 0 0 0 0 0 0 0 0 0 0 0 0 0 0 0 0 0
0 0 0 0 0 0 0 0 0 0 0 0 0 0 0 0 0 0 0 0 0 0 0 0 0 0 0 0 0 0 0 0 0 0 0 0 0 0 0 0 0 0 0 0
0 0 0 0 0 0 0 0 0 0 0 0 0 0 0 0 0 0 0 0 0 0 0 0 0 0 0 0 0 0 0 0 0 0 0 0 0 0 0 0 0 0 0 0
0 0 0 0 0 0 0 0 0 0 0 0 0 0 0 0 0 0 0 0 0 0 0 0 0 0 0 0 0 0 0 0 0 0 0 0 0 0 0 0 0 0 0 0
0 0 0 0 0 0 0 0 0 0 0 0 0 0 0 0 0 0 0 0 0 0 0 0 0 0 0 0 0 0 0 0 0 0 0 0 0 0 0 0 0 0 0 0
0 0 0 0 0 0 0 0 0 0 0 0 0 0 0 0 0 0 0 0 0 0 0 0 0 0 0 0 0 0 0 0 0 0 0 0 0 0 0 0 0 0 0 0
0 0 0 0 0 0 0 0 0 0 0 0 0 0 0 0 0 0 0 0 0 0 0 0 0 0 0 0 0 0 0 0 0 0 0 0 0 0 0 0 0 0 0 0
Wind_Speed
11 10 13 14 15 13 10 8 7 6 3 5 8 11 11 10 10 10 10 9 9 9 8 8 9 9 9 9 10 12 12 11 10 9 8 7 6 6 5 5 7 7 6 6
12 18 16 13 12 13 13 12 10 7 4 3 7 12 13 12 13 12 10 8 8 7 6 7 9 9 9 9 10 11 12 12 11 9 8 6 6 5 5 5 6 7 7 7
22 12 16 16 15 14 14 12 10 8 5 5 8 11 11 10 10 8 7 7 7 7 6 7 9 9 9 9 10 9 11 11 11 10 7 6 5 4 4 5 5 6 7 6
19 16 14 16 16 14 12 9 9 8 6 5 5 7 7 8 8 8 8 7 6 5 5 6 8 9 9 8 8 8 10 10 10 10 10 10 8 6 6 6 5 5 6 6
13 16 16 17 16 14 7 4 5 6 6 8 8 9 7 7 8 6 5 4 4 4 4 6 8 9 8 8 7 7 9 9 9 10 11 10 8 6 5 6 7 6 5 6
13 11 15 15 11 9 7 3 3 4 4 9 11 10 8 6 6 4 3 3 2 4 4 4 6 8 7 7 7 7 8 9 9 10 10 10 10 9 9 8 8 6 5 5
15 14 11 9 10 9 9 7 5 5 6 9 8 9 8 5 3 3 2 2 2 4 4 5 7 8 8 9 8 8 9 9 10 10 10 10 10 10 10 9 9 7 5 4
17 16 14 10 12 11 14 13 9 7 6 4 5 8 6 3 4 4 4 3 3 3 5 5 7 8 9 9 9 9 9 10 10 10 10 9 9 7 6 8 8 7 6 6
16 14 14 13 9 11 14 14 11 6 6 4 6 6 6 5 4 5 5 4 4 4 5 6 6 8 9 10 10 10 10 10 10 10 9 9 9 8 8 8 7 6 6 6
9 11 14 14 9 12 10 10 6 7 6 7 7 10 7 9 8 6 6 5 5 5 5 6 6 7 8 9 9 9 9 10 9 9 9 7 8 8 8 8 8 8 7 8
14 9 11 14 17 18 13 13 9 8 8 5 5 5 5 8 8 8 7 6 6 6 6 6 6 7 8 8 9 9 9 9 9 9 8 8 7 7 8 7 8 8 7 9
14 6 8 11 10 10 15 16 14 10 8 8 5 5 2 7 7 7 6 6 6 6 6 6 6 7 7 8 9 9 9 9 9 9 8 8 7 8 8 8 8 8 8 8
14 8 8 7 8 11 13 16 16 12 8 7 9 6 4 6 6 6 6 5 5 6 6 6 6 6 7 7 8 8 8 9 9 9 9 8 8 8 8 8 8 8 8 8
13 8 11 14 9 13 14 16 17 15 12 13 13 9 5 6 7 7 7 6 6 6 6 6 6 6 7 7 7 8 8 8 8 8 9 9 8 8 8 8 8 8 8 8
9 10 11 9 7 14 15 17 19 20 18 13 13 12 9 8 8 8 7 6 5 6 6 7 7 6 7 7 7 8 8 7 8 8 8 8 7 7 7 7 7 7 7 7
7 8 10 12 10 9 12 18 19 21 19 17 13 13 7 5 4 5 6 6 6 6 6 6 6 6 7 7 7 7 7 7 8 8 7 7 7 7 7 7 7 7 7 6
9 8 9 10 11 7 12 16 18 17 17 16 18 15 7 6 6 5 5 5 5 5 6 6 7 6 6 7 7 7 7 7 7 7 6 7 7 7 7 7 7 7 7 6
10 11 6 5 8 13 11 8 13 15 15 15 13 8 8 7 5 4 4 5 5 5 5 5 5 5 5 5 6 6 6 7 7 6 6 6 7 6 6 6 6 6 5 6
11 10 6 5 8 9 6 9 13 14 15 14 14 11 8 5 2 4 4 4 5 5 4 4 5 5 5 5 6 7 6 7 6 6 6 6 7 7 6 7 6 5 5 5
11 9 6 6 8 10 8 10 8 7 12 11 13 12 10 7 6 7 4 5 5 5 4 4 4 5 5 5 6 7 6 6 6 6 6 6 6 6 6 6 5 4 4 4
12 10 10 8 7 8 5 9 11 10 10 8 11 11 10 11 9 6 7 6 6 6 6 5 6 5 5 5 7 6 6 5 5 5 5 5 5 5 5 4 4 4 3 3
13 10 10 8 8 9 4 9 11 6 3 4 6 7 7 7 7 8 7 7 7 6 6 6 6 5 4 5 7 6 5 5 5 5 5 4 4 4 4 4 3 3 3 3
11 11 7 9 9 4 8 7 6 4 4 3 4 5 7 7 7 8 7 7 7 6 6 5 6 6 5 5 6 6 4 5 6 5 4 4 4 3 3 3 3 3 3 3
7 8 7 6 6 7 6 4 3 3 3 3 5 6 7 7 8 8 8 7 7 6 6 6 7 6 5 4 5 5 5 5 5 5 4 3 3 3 2 2 3 3 3 3
6 8 8 7 4 6 7 6 5 3 4 5 5 5 7 9 8 8 8 8 7 6 5 5 6 6 5 5 5 5 5 5 5 4 3 3 3 2 2 2 2 3 4 4
6 8 11 8 8 6 7 7 6 6 6 6 6 5 5 7 9 8 7 7 7 7 6 6 6 6 5 5 5 5 4 5 5 4 3 2 2 1 1 1 1 3 4 7
Wind_Direction
195 209 213 213 216 235 259 260 255 259 221 202 239 259 265 262 256 251 244 239 238 230 208 185 176 170 170 173 173 173 173 177 174 173 174 175 179 173 169 167 168 169 171 170
198 218 218 218 221 227 245 259 267 273 252 225 256 264 266 257 252 245 244 240 240 237 211 183 173 171 175 178 178 175 174 177 178 175 172 171 167 165 162 158 166 169 170 170
211 209 210 221 222 223 229 237 249 265 287 269 274 272 258 257 245 234 235 235 237 224 209 185 175 175 174 181 181 181 176 175 176 166 158 151 141 138 149 161 167 173 168 164
222 220 204 211 222 220 231 226 240 259 274 270 257 282 264 262 249 227 220 220 224 217 198 183 175 174 176 177 172 175 170 170 172 165 164 165 167 170 173 165 166 170 166 162
215 208 211 213 214 216 222 217 232 243 255 267 263 269 262 240 240 220 204 189 186 188 188 183 176 171 167 160 160 166 163 169 170 168 169 172 173 170 157 157 162 167 165 161
227 213 208 216 213 207 195 192 234 243 247 252 233 235 266 234 222 194 158 143 164 166 173 174 163 155 150 145 149 159 164 170 172 172 175 180 177 168 162 164 167 168 163 162
221 224 212 195 193 195 185 177 199 209 214 237 210 219 244 225 160 143 149 160 155 156 167 173 161 158 155 154 160 169 171 174 175 179 185 185 180 174 171 168 169 168 166 167
204 211 202 196 195 190 195 194 196 198 213 220 186 223 242 205 150 146 152 154 155 158 166 172 168 164 161 162 168 176 179 178 179 183 188 186 179 175 171 168 167 172 170 170
196 209 184 190 197 190 192 209 228 273 292 284 239 222 225 201 177 169 160 162 169 166 166 170 169 166 165 168 174 180 181 181 182 183 184 185 179 173 168 166 164 166 161 159
205 199 183 181 190 218 203 187 190 213 224 241 248 236 223 194 193 174 165 167 165 162 166 171 175 174 170 170 173 179 182 183 180 180 184 183 176 170 165 164 165 162 159 156
231 211 179 174 192 195 199 200 195 200 223 219 239 243 203 172 163 160 161 158 157 163 168 173 176 173 168 166 171 179 183 181 179 182 181 177 175 168 163 163 164 162 159 159
211 208 194 197 198 203 204 208 202 199 208 215 244 265 124 130 137 146 153 152 154 160 164 167 170 168 169 172 175 181 182 181 181 179 177 177 173 167 166 167 166 162 163 165
195 193 176 185 200 206 215 214 215 220 232 225 218 239 167 140 146 155 163 169 166 163 162 165 169 174 177 177 178 180 182 181 177 174 176 176 176 173 173 171 167 165 166 167
191 200 198 196 188 184 205 212 211 212 223 232 232 232 204 180 180 181 184 183 180 171 167 171 177 181 181 181 180 181 183 178 173 172 175 179 180 177 174 169 167 168 167 170
185 209 218 222 206 180 196 205 209 215 220 224 228 229 225 205 195 190 186 183 183 174 178 181 183 184 181 181 182 181 181 176 171 172 178 179 172 169 168 166 166 165 168 173
182 197 215 231 229 216 207 208 211 218 223 232 241 244 236 229 203 198 192 190 191 187 188 183 182 182 183 182 180 177 177 174 167 172 176 167 164 164 166 165 164 167 173 174
188 188 198 222 221 232 233 213 211 217 222 224 234 237 236 239 226 215 203 197 195 191 185 180 181 183 183 178 173 174 170 161 163 168 167 165 164 166 169 166 168 176 178 178
195 197 192 197 196 224 232 203 208 218 224 222 231 230 221 224 219 209 195 192 194 186 176 173 170 171 168 158 155 153 149 151 157 162 163 163 164 166 165 168 177 181 181 185
201 195 186 186 210 239 229 204 201 209 230 218 222 224 218 201 222 251 213 181 172 163 154 153 151 150 146 147 145 139 142 145 152 162 165 164 162 165 169 178 183 183 184 193
199 197 183 181 202 224 222 191 182 186 242 217 210 214 202 174 205 231 183 156 139 125 121 123 120 119 130 137 133 135 143 148 161 165 162 159 161 166 176 182 183 183 186 196
190 194 194 192 209 243 225 168 146 183 228 201 198 200 188 190 198 169 138 129 124 123 122 118 114 116 127 127 125 133 139 153 154 145 146 152 159 166 170 172 175 177 185 191
181 182 191 194 206 229 177 153 173 196 165 165 176 175 168 165 149 139 134 131 126 123 119 118 115 112 111 119 125 130 141 139 127 130 140 149 153 157 158 164 176 179 181 194
189 186 181 194 211 191 165 183 193 151 148 149 148 145 142 143 147 143 141 137 133 129 124 118 118 113 104 108 122 131 134 124 124 129 138 143 143 148 154 164 177 182 185 197
194 186 190 200 205 189 190 183 175 156 145 135 135 135 138 143 144 142 141 138 133 127 127 123 120 120 118 112 111 120 120 118 123 132 138 139 141 150 160 168 175 184 196 206
191 184 198 212 188 157 200 198 182 151 122 113 118 132 145 141 143 144 143 140 136 131 129 126 130 132 133 125 114 115 119 123 128 134 135 136 143 158 177 192 201 205 212 212
195 185 192 204 185 175 206 198 175 164 167 155 142 133 133 140 143 137 136 134 132 132 129 129 130 132 130 123 118 116 117 122 128 133 139 145 153 170 186 210 270 258 257 259